Showing default

KOREASAT 6A, 61910

Orbit data source: Space-Track

KOREASAT 6A, 61910 is a payload satellite owned by KT Sat (KR) in GEO that was launched on Mon, 11 Nov 2024 UTC via an FALCON 9 launch vehicle from the Air Force Eastern Test Range (AFETR). Payload-class satellites include a variety of spacecraft equipped with specific instruments for various scientific and technological missions. These include communications satellites like Starlink; space stations such as the ISS; scientific satellites like the Hubble; Earth observation satellites from companies like Planet Labs, Umbra, and HawkEye 360; GPS; miniature CubeSats for education and research; and military/defense satellites.

Not visible in the next 10 days
Identifier
61910, 2024-206A
Orbit
GEO
Last TLE update
12 hours ago
Origin
Manufacturer
Thales Alenia
Mission
Operational Commercial Communications
Bus & Motor
SPACEBUS 4000B2, S400
Mass
~3,500 kg wet, ~2,000 kg dry
Launch date (UTC)
2024-11-11 (8 months ago)
Launch vehicle
FALCON 9
Launch site
Air Force Eastern Test Range (AFETR)
Object type
Payload
Rocket body
Debris
Shape & HBR
Box + 2 Pan, 38 m
Radar Cross Section
39.423 m²

Expand to show TLE details & history

TLE from 12 hours ago
0 KOREASAT 6A
1 61910U 24206A   25181.57553315 -.00000362  00000-0  00000-0 0  9994
2 61910   0.0156  96.4070 0000936 359.5305 146.1343  1.00271800  2312
Epoch: 2025-06-30T13:48Z
TLE epoch observation values (Epoch: 2025-06-30T13:48:46.064Z)
Latitude
-0.00103°
Longitude
116.01727°
Altitude
35,789.372 km
Speed
3.074 km/s
True Right ascension
16h 08m 22s
True Declination
0° 00' 04"
Sunlit
Object was in daylight at epoch
Visualization orbit readout
Latitude
0.00069°
Longitude
-63.64695°
Altitude
35,782.854 km
Speed
3.075 km/s
Apparent Right ascension
03h 53m 38s
Apparent Declination
-5° 03' 38"
Sunlit
Object is in daylight
Visualization observer readout
Local Sidereal Time
13:25:13
Azimuth
306.344° NW
Elevation
-41.753°
Doppler factor
1
Orbital elements
Apogee altitude
35,791.608 km
Perigee altitude
35,783.714 km
Semi-major axis
42,165.798 km
Eccentricity
0.00009
Inclination
0.0156°
RAAN
96.407°
Arg. of periapsis
359.5305°
True anomaly
Unknown
Mean anomaly
146.1343°
Eccentric anomaly
Unknown
Mean motion
0.25067 °/min
Orbital period
1,436.15 mins
BSTAR
0
Loading historical data...
61910 neighbors
Loading maneuver chart data...
Loading SW <> Apogee altitude chart data...
Loading historical data...
Loading historical data...
Loading historical data...
Loading historical data...
Loading historical data...
Loading historical data...
Loading historical data...
Other satellites on launch #206 in the year 2024 (2024-11-11 UTC)

KOREASAT 6A Visibility

Observer location: undefined°, undefined°

KOREASAT 6A is likely not visible in the next few days
Span
Click to sort rows by Start time (UTC) header in descending order
Start Az.
Max El. time (UTC)
Max El. Az.
Max El.
End time (UTC)
End Az.
|